Dades meteomassalio
Diari Summary for Marc 5, 2017 Units:  Metric    English   Both
« Previous Day
Next Day »
Diari Semanal Mensual Anual Personalitzat
  Maxima: Minima: Mijana:
Temperatura: -17.8 °C -15.5 °C -12.2 °C
Rosada: -17.8 °C -17.3 °C -14.6 °C
Humitat: Humidity % 60 % 75 %
Velocitat del vent: 0 km/h 0 km/h 11.1 km/h
Racha vent: 0 km/h - -
Vent:- - WNW
Pressio: 0 hPa 34327.3 hPa -
Pluja: 0 mm    
Historical Graphs
 
 
Tabular Data for Marc 5, 2017
Time Temperature Dew Point Pressure Wind Wind Speed Wind Gust Humidity Rainfall Rate (Hourly) solar Conditions
-17.8 °C -17.8 °C 0 hPa Calm     Humidity % 0 mm SolarRadiationWatts/m^2 W/m2 Conditions
00:04 -15.1 °C -17.2 °C 34327.3 hPa Calm     77 % 0 mm 0.0 W/m2 RA
00:09 -15.1 °C -17.2 °C 34327.3 hPa Calm     76 % 0 mm 0.0 W/m2 CLR
00:14 -15.1 °C -17.3 °C 34337.4 hPa Calm     76 % 0 mm 0.0 W/m2 CLR
00:19 -15.1 °C -17.3 °C 34337.4 hPa Calm     76 % 0 mm 0.0 W/m2 CLR
00:24 -15.1 °C -17.1 °C 34337.4 hPa Calm     78 % 0 mm 0.0 W/m2 CLR
00:29 -15.2 °C -17.2 °C 34327.3 hPa Calm     78 % 0 mm 0.0 W/m2 CLR
00:34 -15.3 °C -17.3 °C 34337.4 hPa Calm     78 % 0 mm 0.0 W/m2 CLR
00:39 -15.3 °C -17.3 °C 34337.4 hPa Calm     78 % 0 mm 0.0 W/m2 CLR
00:44 -15.3 °C -17.2 °C 34337.4 hPa Calm     79 % 0 mm 0.0 W/m2 CLR
00:49 -15.4 °C -17.2 °C 34327.3 hPa Calm     79 % 0 mm 0.0 W/m2 CLR
00:54 -15.4 °C -17.2 °C 34327.3 hPa Calm     80 % 0 mm 0.0 W/m2 CLR
00:59 -15.4 °C -17.1 °C 34327.3 hPa Calm     81 % 0 mm 0.0 W/m2 CLR
01:04 -15.4 °C -17.1 °C 34337.4 hPa Calm     81 % 0 mm 0.0 W/m2 CLR
01:09 -15.4 °C -17.1 °C 34337.4 hPa Calm     81 % 0 mm 0.0 W/m2 CLR
01:14 -15.4 °C -16.9 °C 34327.3 hPa Calm     82 % 0 mm 0.0 W/m2 CLR
01:19 -15.4 °C -17 °C 34337.4 hPa Calm     82 % 0 mm 0.0 W/m2 CLR
01:24 -15.4 °C -17.1 °C 34337.4 hPa Calm     81 % 0 mm 0.0 W/m2 CLR
01:29 -15.4 °C -17.1 °C 34337.4 hPa Calm     80 % 0 mm 0.0 W/m2 CLR
01:34 -15.4 °C -17.1 °C 34347.6 hPa Calm     81 % 0 mm 0.0 W/m2 CLR
01:39 -15.4 °C -16.9 °C 34361.1 hPa Calm     82 % 0 mm 0.0 W/m2 CLR
01:44 -15.4 °C -16.9 °C 34361.1 hPa Calm     82 % 0 mm 0.0 W/m2 CLR
01:49 -15.4 °C -16.9 °C 34361.1 hPa Calm     83 % 0 mm 0.0 W/m2 CLR
01:54 -15.4 °C -16.9 °C 34361.1 hPa Calm     83 % 0 mm 0.0 W/m2 CLR
01:59 -15.4 °C -16.9 °C 34371.3 hPa Calm     83 % 0 mm 0.0 W/m2 CLR
02:04 -15.4 °C -16.8 °C 34371.3 hPa Calm     83 % 0 mm 0.0 W/m2 CLR
02:09 -15.4 °C -16.8 °C 34371.3 hPa Calm     83 % 0 mm 0.0 W/m2 CLR
02:14 -15.4 °C -16.9 °C 34371.3 hPa Calm     83 % 0 mm 0.0 W/m2 CLR
02:19 -15.5 °C -16.8 °C 34371.3 hPa Calm     84 % 0 mm 0.0 W/m2 CLR
02:24 -15.5 °C -16.8 °C 34371.3 hPa Calm     84 % 0 mm 0.0 W/m2 CLR
02:29 -15.4 °C -16.8 °C 34371.3 hPa Calm     84 % 0 mm 0.0 W/m2 CLR
02:34 -15.3 °C -16.6 °C 34371.3 hPa Calm     85 % 0 mm 0.0 W/m2 CLR
02:39 -15.3 °C -16.7 °C 34371.3 hPa Calm     84 % 0 mm 0.0 W/m2 CLR
02:44 -15.3 °C -16.7 °C 34371.3 hPa Calm     84 % 0 mm 0.0 W/m2 CLR
02:45 -15.3 °C -16.7 °C 34371.3 hPa Calm     84 % 0 mm 0.0 W/m2 CLR
02:50 -15.3 °C -16.7 °C 34371.3 hPa Calm     84 % 0 mm 0.0 W/m2 CLR
02:55 -15.3 °C -16.7 °C 34371.3 hPa Calm     84 % 0 mm 0.0 W/m2 CLR
03:00 -15.3 °C -16.7 °C 34371.3 hPa Calm     84 % 0 mm 0.0 W/m2 CLR
03:05 -15.3 °C -16.7 °C 34371.3 hPa Calm     84 % 0 mm 0.0 W/m2 CLR
03:10 -15.3 °C -16.6 °C 34371.3 hPa Calm     85 % 0 mm 0.0 W/m2 CLR
03:15 -15.2 °C -16.6 °C 34361.1 hPa Calm     84 % 0 mm 0.0 W/m2 CLR
03:20 -15.2 °C -16.6 °C 34361.1 hPa Calm     84 % 0 mm 0.0 W/m2 CLR
03:25 -15.2 °C -16.6 °C 34361.1 hPa Calm     84 % 0 mm 0.0 W/m2 CLR
03:30 -15.1 °C -16.6 °C 34361.1 hPa Calm     82 % 0 mm 0.0 W/m2 CLR
03:35 -15 °C -16.6 °C 34361.1 hPa Calm     82 % 0 mm 0.0 W/m2 CLR
03:40 -14.9 °C -16.6 °C 34361.1 hPa Calm     81 % 0 mm 0.0 W/m2 CLR
03:45 -14.8 °C -16.5 °C 34361.1 hPa Calm     81 % 0 mm 0.0 W/m2 CLR
03:50 -14.9 °C -16.6 °C 34361.1 hPa Calm     81 % 0 mm 0.0 W/m2 CLR
03:55 -14.8 °C -16.6 °C 34361.1 hPa Calm     80 % 0 mm 0.0 W/m2 CLR
04:00 -14.6 °C -16.5 °C 34347.6 hPa Calm     79 % 0 mm 0.0 W/m2 CLR
04:05 -14.6 °C -16.6 °C 34347.6 hPa Calm     78 % 0 mm 0.0 W/m2 CLR
04:10 -14.7 °C -16.6 °C 34337.4 hPa Calm     79 % 0 mm 0.0 W/m2 CLR
04:15 -14.9 °C -16.7 °C 34361.1 hPa Calm     80 % 0 mm 0.0 W/m2 CLR
04:20 -15.1 °C -16.7 °C 34361.1 hPa Calm     81 % 0 mm 0.0 W/m2 CLR
04:25 -15 °C -16.6 °C 34371.3 hPa Calm     82 % 0 mm 0.0 W/m2 CLR
04:30 -15.1 °C -16.6 °C 34371.3 hPa Calm     82 % 0 mm 0.0 W/m2 CLR
04:35 -15.1 °C -16.6 °C 34371.3 hPa Calm     82 % 0 mm 0.0 W/m2 CLR
04:40 -14.9 °C -16.6 °C 34361.1 hPa Calm     81 % 0 mm 0.0 W/m2 CLR
04:45 -14.6 °C -16.4 °C 34361.1 hPa Calm     79 % 0 mm 0.0 W/m2 CLR
04:50 -14.3 °C -16.3 °C 34361.1 hPa Calm     77 % 0 mm 0.0 W/m2 CLR
04:55 -14.1 °C -16.3 °C 34361.1 hPa Calm     76 % 0 mm 0.0 W/m2 CLR
05:00 -14.1 °C -16.4 °C 34361.1 hPa Calm     75 % 0 mm 0.0 W/m2 CLR
05:05 -14.1 °C -16.3 °C 34361.1 hPa Calm     75 % 0 mm 0.0 W/m2 CLR
05:10 -14 °C -16.4 °C 34361.1 hPa Calm     74 % 0 mm 0.0 W/m2 CLR
05:15 -13.9 °C -16.3 °C 34361.1 hPa Calm     74 % 0 mm 0.0 W/m2 CLR
05:20 -14.1 °C -16.4 °C 34371.3 hPa Calm     75 % 0 mm 0.0 W/m2 CLR
05:25 -14.3 °C -16.6 °C 34371.3 hPa Calm     75 % 0 mm 0.0 W/m2 CLR
05:30 -14.6 °C -16.6 °C 34371.3 hPa Calm     77 % 0 mm 0.0 W/m2 CLR
05:35 -14.8 °C -16.7 °C 34384.8 hPa Calm     78 % 0 mm 0.0 W/m2 CLR
05:40 -14.9 °C -16.7 °C 34371.3 hPa Calm     79 % 0 mm 0.0 W/m2 CLR
05:45 -15.1 °C -16.8 °C 34371.3 hPa Calm     80 % 0 mm 0.0 W/m2 CLR
05:50 -15.2 °C -16.8 °C 34371.3 hPa Calm     82 % 0 mm 0.0 W/m2 CLR
05:55 -15.2 °C -16.7 °C 34371.3 hPa Calm     82 % 0 mm 0.0 W/m2 CLR
06:00 -15.2 °C -16.7 °C 34371.3 hPa Calm     82 % 0 mm 0.0 W/m2 CLR
06:05 -15.1 °C -16.7 °C 34384.8 hPa Calm     82 % 0 mm 0.0 W/m2 CLR
06:10 -15.2 °C -16.7 °C 34384.8 hPa Calm     82 % 0 mm 0.0 W/m2 CLR
06:15 -15.2 °C -16.7 °C 34395 hPa Calm     83 % 0 mm 0.0 W/m2 CLR
06:20 -15.2 °C -16.7 °C 34395 hPa Calm     83 % 0 mm 0.0 W/m2 CLR
06:25 -15.2 °C -16.6 °C 34395 hPa Calm     84 % 0 mm 0.0 W/m2 CLR
06:30 -15.2 °C -16.6 °C 34395 hPa Calm     84 % 0 mm 0.0 W/m2 CLR
06:35 -15.2 °C -16.6 °C 34405.1 hPa Calm     84 % 0 mm 0.0 W/m2 CLR
06:40 -15.2 °C -16.6 °C 34405.1 hPa Calm     84 % 0 mm 0.0 W/m2 CLR
06:45 -15.2 °C -16.6 °C 34405.1 hPa Calm     84 % 0 mm 0.0 W/m2 CLR
06:50 -15.2 °C -16.6 °C 34405.1 hPa Calm     84 % 0 mm 0.0 W/m2 CLR
06:55 -15.2 °C -16.6 °C 34405.1 hPa Calm     84 % 0 mm 0.0 W/m2 CLR
07:00 -15.2 °C -16.5 °C 34418.7 hPa Calm     85 % 0 mm 0.0 W/m2 CLR
07:05 -15.2 °C -16.5 °C 34418.7 hPa Calm     85 % 0 mm 0.0 W/m2 CLR
07:06 -15.2 °C -16.5 °C 34418.7 hPa Calm     85 % 0 mm 0.0 W/m2 CLR
07:11 -15.2 °C -16.4 °C 34418.7 hPa Calm     85 % 0 mm 0.0 W/m2 CLR
07:16 -15.1 °C -16.4 °C 34418.7 hPa Calm     85 % 0 mm 0.0 W/m2 CLR
07:21 -15.1 °C -16.4 °C 34418.7 hPa Calm     85 % 0 mm 0.0 W/m2 OVC
07:26 -15.1 °C -16.4 °C 34428.8 hPa Calm     85 % 0 mm 5.0 W/m2 OVC
07:31 -15.1 °C -16.3 °C 34418.7 hPa Calm     85 % 0 mm 12.0 W/m2 OVC
07:36 -15.1 °C -16.4 °C 34418.7 hPa Calm     85 % 0 mm 16.0 W/m2 BKN
07:41 -15.1 °C -16.3 °C 34418.7 hPa Calm     85 % 0 mm 21.0 W/m2 BKN
07:46 -14.9 °C -16.3 °C 34418.7 hPa Calm     85 % 0 mm 32.0 W/m2 BKN
07:51 -14.9 °C -16.2 °C 34418.7 hPa Calm     85 % 0 mm 49.0 W/m2 BKN
07:56 -14.9 °C -16.2 °C 34428.8 hPa Calm     85 % 0 mm 63.0 W/m2 SCT
08:01 -14.8 °C -16.2 °C 34428.8 hPa Calm     85 % 0 mm 56.0 W/m2 SCT
08:06 -14.8 °C -16.1 °C 34428.8 hPa Calm     85 % 0 mm 65.0 W/m2 SCT
08:11 -14.8 °C -16.2 °C 34428.8 hPa Calm     84 % 0 mm 63.0 W/m2 SCT
08:16 -14.7 °C -16.1 °C 34428.8 hPa Calm     84 % 0 mm 63.0 W/m2 SCT
08:21 -14.6 °C -16 °C 34428.8 hPa Calm     84 % 0 mm 76.0 W/m2 FEW
08:26 -14.6 °C -15.8 °C 34428.8 hPa Calm     85 % 0 mm 105.0 W/m2 CLR
08:31 -14.5 °C -15.9 °C 34428.8 hPa Calm     84 % 0 mm 118.0 W/m2 CLR
08:36 -14.4 °C -15.9 °C 34428.8 hPa Calm     83 % 0 mm 128.0 W/m2 CLR
08:41 -14.3 °C -15.7 °C 34442.4 hPa Calm     83 % 0 mm 139.0 W/m2 CLR
08:46 -14.1 °C -15.6 °C 34442.4 hPa Calm     83 % 0 mm 142.0 W/m2 CLR
08:51 -13.9 °C -15.5 °C 34428.8 hPa Calm     82 % 0 mm 149.0 W/m2 CLR
08:56 -13.8 °C -15.4 °C 34442.4 hPa Calm     82 % 0 mm 185.0 W/m2 CLR
09:01 -13.7 °C -15.6 °C 34442.4 hPa Calm     79 % 0 mm 144.0 W/m2 CLR
09:06 -13.6 °C -15.7 °C 34452.6 hPa Calm     77 % 0 mm 141.0 W/m2 CLR
09:11 -13.4 °C -15.5 °C 34452.6 hPa Calm     77 % 0 mm 169.0 W/m2 CLR
09:17 -13.3 °C -15.5 °C 34442.4 hPa Calm     76 % 0 mm 199.0 W/m2 CLR
09:22 -13.2 °C -15.7 °C 34442.4 hPa Calm     74 % 0 mm 174.0 W/m2 CLR
09:26 -13.1 °C -15.5 °C 34442.4 hPa Calm     74 % 0 mm 172.0 W/m2 CLR
09:32 -12.9 °C -15.5 °C 34442.4 hPa Calm     73 % 0 mm 207.0 W/m2 CLR
09:37 -12.8 °C -15.3 °C 34452.6 hPa Calm     73 % 0 mm 257.0 W/m2 CLR
09:42 -12.6 °C -15.3 °C 34452.6 hPa Calm     72 % 0 mm 281.0 W/m2 CLR
09:47 -12.4 °C -15.1 °C 34452.6 hPa Calm     72 % 0 mm 357.0 W/m2 CLR
09:52 -12.1 °C -14.9 °C 34452.6 hPa Calm     71 % 0 mm 376.0 W/m2 CLR
09:57 -11.8 °C -15 °C 34452.6 hPa Calm     68 % 0 mm 248.0 W/m2 CLR
10:02 -11.8 °C -14.8 °C 34442.4 hPa Calm     69 % 0 mm 371.0 W/m2 CLR
10:07 -11.6 °C -14.7 °C 34442.4 hPa Calm     69 % 0 mm 394.0 W/m2 CLR
10:12 -11.4 °C -15.1 °C 34442.4 hPa Calm     64 % 0 mm 425.0 W/m2 CLR
10:17 -11.2 °C -14.6 °C 34442.4 hPa Calm     67 % 0 mm 350.0 W/m2 CLR
10:22 -11.1 °C -14.9 °C 34442.4 hPa NNW 9 km/h 9 km/h 63 % 0 mm 353.0 W/m2 CLR
10:27 -10.9 °C -15 °C 34428.8 hPa West 9 km/h 9 km/h 61 % 0 mm 422.0 W/m2 CLR
10:32 -10.8 °C -15.1 °C 34428.8 hPa SW 26.9 km/h 26.9 km/h 60 % 0 mm 490.0 W/m2 CLR
10:37 -10.7 °C -14.7 °C 34428.8 hPa WNW 29.8 km/h 29.8 km/h 62 % 0 mm 489.0 W/m2 CLR
10:42 -10.7 °C -14.8 °C 34442.4 hPa WNW 29.8 km/h 29.8 km/h 61 % 0 mm 424.0 W/m2 CLR
10:47 -10.7 °C -14.6 °C 34452.6 hPa NW 32.8 km/h 32.8 km/h 62 % 0 mm 415.0 W/m2 CLR
10:52 -10.7 °C -14.8 °C 34442.4 hPa NW 38.8 km/h 38.8 km/h 61 % 0 mm 587.0 W/m2 CLR
10:57 -10.6 °C -14.7 °C 34428.8 hPa WNW 31.1 km/h 31.1 km/h 61 % 0 mm 376.0 W/m2 CLR
11:02 -10.6 °C -14.5 °C 34428.8 hPa WNW 38.8 km/h 38.8 km/h 62 % 0 mm 390.0 W/m2 CLR
11:07 -10.6 °C -14.4 °C 34428.8 hPa WNW 50.7 km/h 50.7 km/h 63 % 0 mm 406.0 W/m2 CLR
11:12 -10.5 °C -14.1 °C 34428.8 hPa NW 35.7 km/h 35.7 km/h 65 % 0 mm 385.0 W/m2 CLR
11:17 -10.5 °C -14.3 °C 34428.8 hPa WNW 50.7 km/h 50.7 km/h 63 % 0 mm 587.0 W/m2 CLR
11:22 -10.5 °C -14.1 °C 34442.4 hPa WNW 44.7 km/h 44.7 km/h 65 % 0 mm 529.0 W/m2 CLR
11:27 -10.5 °C -14.2 °C 34442.4 hPa NW 41.7 km/h 41.7 km/h 64 % 0 mm 425.0 W/m2 CLR
11:32 -10.4 °C -13.9 °C 34442.4 hPa WNW 29.8 km/h 29.8 km/h 66 % 0 mm 425.0 W/m2 CLR
11:37 -10.4 °C -13.9 °C 34442.4 hPa WNW 47.6 km/h 47.6 km/h 65 % 0 mm 276.0 W/m2 CLR
11:42 -10.2 °C -13.9 °C 34452.6 hPa NW 26.9 km/h 26.9 km/h 64 % 0 mm 638.0 W/m2 CLR
11:47 -10.1 °C -13.8 °C 34452.6 hPa NW 56.6 km/h 56.6 km/h 64 % 0 mm 506.0 W/m2 CLR
11:52 -9.9 °C -13.6 °C 34452.6 hPa WNW 38.8 km/h 38.8 km/h 65 % 0 mm 554.0 W/m2 CLR
11:57 -9.8 °C -13.4 °C 34452.6 hPa NW 38.8 km/h 38.8 km/h 65 % 0 mm 763.0 W/m2 CLR
12:02 -9.7 °C -13.4 °C 34452.6 hPa NW 38.8 km/h 38.8 km/h 64 % 0 mm 707.0 W/m2 CLR
12:07 -9.6 °C -13.5 °C 34452.6 hPa NW 47.6 km/h 47.6 km/h 63 % 0 mm 475.0 W/m2 CLR
12:12 -9.8 °C -13.7 °C 34462.7 hPa North 44.7 km/h 44.7 km/h 63 % 0 mm 591.0 W/m2 CLR
12:17 -9.8 °C -13.5 °C 34462.7 hPa NW 44.7 km/h 44.7 km/h 64 % 0 mm 670.0 W/m2 CLR
12:22 -9.8 °C -13.8 °C 34452.6 hPa NW 44.7 km/h 44.7 km/h 62 % 0 mm 392.0 W/m2 CLR
12:28 -9.7 °C -13.3 °C 34452.6 hPa NW 23.8 km/h 23.8 km/h 65 % 0 mm 404.0 W/m2 CLR
12:33 -9.7 °C -13.4 °C 34452.6 hPa North 38.8 km/h 38.8 km/h 64 % 0 mm 424.0 W/m2 CLR
12:38 -9.8 °C -13.5 °C 34452.6 hPa NNW 29.8 km/h 31.4 km/h 64 % 0 mm 404.0 W/m2 CLR
12:43 -9.8 °C -13.6 °C 34452.6 hPa NNW 29.8 km/h 29.8 km/h 64 % 0 mm 420.0 W/m2 CLR
12:48 -9.8 °C -13.2 °C 34452.6 hPa NNW 23.8 km/h 23.8 km/h 66 % 0 mm 533.0 W/m2 CLR
12:53 -9.8 °C -13.2 °C 34462.7 hPa NW 29.8 km/h 29.8 km/h 66 % 0 mm 462.0 W/m2 CLR
12:58 -9.7 °C -13.1 °C 34462.7 hPa NNW 23.8 km/h 23.8 km/h 67 % 0 mm 701.0 W/m2 CLR
13:03 -9.6 °C -13.2 °C 34462.7 hPa NNE 35.7 km/h 35.7 km/h 65 % 0 mm 554.0 W/m2 CLR
13:08 -9.6 °C -13.2 °C 34452.6 hPa North 29.8 km/h 29.8 km/h 65 % 0 mm 478.0 W/m2 CLR
13:13 -9.7 °C -13.3 °C 34452.6 hPa NW 41.7 km/h 41.7 km/h 65 % 0 mm 489.0 W/m2 CLR
13:18 -9.7 °C -13.4 °C 34452.6 hPa NW 29.8 km/h 29.8 km/h 64 % 0 mm 469.0 W/m2 CLR
13:23 -9.8 °C -13.4 °C 34452.6 hPa NNW 33.6 km/h 33.6 km/h 65 % 0 mm 334.0 W/m2 CLR
13:28 -9.8 °C -13.3 °C 34462.7 hPa NNW 29.8 km/h 29.8 km/h 66 % 0 mm 577.0 W/m2 CLR
13:33 -9.7 °C -13.3 °C 34476.3 hPa NNW 38.8 km/h 38.8 km/h 65 % 0 mm 761.0 W/m2 CLR
13:38 -9.6 °C -13.1 °C 34476.3 hPa North 38.8 km/h 38.8 km/h 66 % 0 mm 835.0 W/m2 CLR
13:43 -9.4 °C -12.9 °C 34476.3 hPa NNW 32.8 km/h 32.8 km/h 66 % 0 mm 485.0 W/m2 CLR
13:48 -9.6 °C -13 °C 34476.3 hPa NNW 29.8 km/h 29.8 km/h 66 % 0 mm 450.0 W/m2 CLR
13:53 -9.6 °C -13.1 °C 34476.3 hPa NW 29.8 km/h 29.8 km/h 66 % 0 mm 411.0 W/m2 CLR
13:58 -9.6 °C -13.1 °C 34476.3 hPa NW 29.8 km/h 29.8 km/h 66 % 0 mm 404.0 W/m2 CLR
14:03 -9.7 °C -13.2 °C 34476.3 hPa NNW 38.8 km/h 38.8 km/h 66 % 0 mm 325.0 W/m2 CLR
14:08 -9.7 °C -13.1 °C 34476.3 hPa NW 36.2 km/h 36.2 km/h 67 % 0 mm 320.0 W/m2 CLR
14:13 -9.8 °C -13.2 °C 34462.7 hPa NW 38.8 km/h 38.8 km/h 67 % 0 mm 311.0 W/m2 CLR
14:18 -9.8 °C -13 °C 34462.7 hPa WNW 36.2 km/h 36.2 km/h 68 % 0 mm 380.0 W/m2 CLR
14:23 -9.8 °C -13.2 °C 34462.7 hPa NW 35.7 km/h 35.7 km/h 67 % 0 mm 279.0 W/m2 CLR
14:28 -9.8 °C -12.9 °C 34462.7 hPa West 29.8 km/h 29.8 km/h 69 % 0 mm 297.0 W/m2 CLR
14:33 -9.8 °C -13.1 °C 34462.7 hPa NNW 38.8 km/h 38.8 km/h 67 % 0 mm 304.0 W/m2 CLR
14:38 -9.7 °C -12.9 °C 34452.6 hPa West 33.6 km/h 33.6 km/h 68 % 0 mm 512.0 W/m2 CLR
14:43 -9.6 °C -13 °C 34442.4 hPa West 35.7 km/h 35.7 km/h 66 % 0 mm 338.0 W/m2 CLR
14:48 -9.3 °C -12.8 °C 34428.8 hPa WNW 50.7 km/h 50.7 km/h 66 % 0 mm 536.0 W/m2 CLR
14:53 -9.1 °C -12.8 °C 34442.4 hPa WNW 53.6 km/h 53.6 km/h 65 % 0 mm 691.0 W/m2 CLR
14:58 -9.1 °C -12.9 °C 34442.4 hPa NW 53.6 km/h 53.6 km/h 64 % 0 mm 406.0 W/m2 CLR
15:03 -9.2 °C -12.8 °C 34428.8 hPa WNW 59.5 km/h 59.5 km/h 65 % 0 mm 406.0 W/m2 CLR
15:08 -9.2 °C -12.9 °C 34442.4 hPa WNW 59.5 km/h 59.5 km/h 64 % 0 mm 497.0 W/m2 CLR
15:13 -9.3 °C -12.9 °C 34442.4 hPa WNW 56.6 km/h 56.6 km/h 65 % 0 mm 508.0 W/m2 CLR
15:18 -9.1 °C -12.8 °C 34428.8 hPa NNW 47.6 km/h 47.6 km/h 65 % 0 mm 401.0 W/m2 CLR
15:23 -9 °C -12.8 °C 34442.4 hPa WNW 38.8 km/h 38.8 km/h 64 % 0 mm 371.0 W/m2 CLR
15:29 -9 °C -12.8 °C 34442.4 hPa WNW 44.7 km/h 44.7 km/h 64 % 0 mm 504.0 W/m2 CLR
15:34 -9 °C -12.8 °C 34442.4 hPa NW 50.7 km/h 50.7 km/h 64 % 0 mm 471.0 W/m2 CLR
15:39 -9.1 °C -12.8 °C 34442.4 hPa WNW 38.8 km/h 38.8 km/h 65 % 0 mm 302.0 W/m2 CLR
15:44 -9.2 °C -12.8 °C 34442.4 hPa NNW 44.7 km/h 44.7 km/h 65 % 0 mm 392.0 W/m2 CLR
15:49 -9.2 °C -12.8 °C 34442.4 hPa WNW 44.7 km/h 44.7 km/h 65 % 0 mm 427.0 W/m2 CLR
15:54 -9.1 °C -12.6 °C 34442.4 hPa NW 35.7 km/h 35.7 km/h 66 % 0 mm 563.0 W/m2 CLR
15:59 -9.1 °C -12.7 °C 34428.8 hPa WNW 26.9 km/h 26.9 km/h 65 % 0 mm 322.0 W/m2 CLR
16:04 -9.1 °C -12.9 °C 34428.8 hPa WNW 36.2 km/h 36.2 km/h 64 % 0 mm 229.0 W/m2 CLR
16:09 -9.1 °C -12.7 °C 34428.8 hPa West 29.8 km/h 29.8 km/h 65 % 0 mm 241.0 W/m2 CLR
16:14 -9.1 °C -12.7 °C 34428.8 hPa West 29.8 km/h 29.8 km/h 65 % 0 mm 255.0 W/m2 CLR
16:19 -9 °C -12.9 °C 34418.7 hPa WSW 59.5 km/h 59.5 km/h 63 % 0 mm 229.0 W/m2 CLR
16:24 -9 °C -12.7 °C 34428.8 hPa West 44.7 km/h 44.7 km/h 64 % 0 mm 209.0 W/m2 CLR
16:29 -8.9 °C -12.4 °C 34442.4 hPa NW 32.8 km/h 32.8 km/h 66 % 0 mm 155.0 W/m2 CLR
16:34 -8.9 °C -12.6 °C 34442.4 hPa NW 29.8 km/h 29.8 km/h 65 % 0 mm 169.0 W/m2 CLR
16:39 -9 °C -12.6 °C 34452.6 hPa NNW 35.7 km/h 35.7 km/h 65 % 0 mm 197.0 W/m2 CLR
16:44 -8.9 °C -12.7 °C 34452.6 hPa North 29.8 km/h 29.8 km/h 64 % 0 mm 246.0 W/m2 CLR
16:49 -8.9 °C -12.6 °C 34442.4 hPa NW 32.8 km/h 32.8 km/h 65 % 0 mm 343.0 W/m2 CLR
16:54 -8.9 °C -12.6 °C 34452.6 hPa NW 23.8 km/h 23.8 km/h 65 % 0 mm 162.0 W/m2 CLR
16:59 -9 °C -12.6 °C 34442.4 hPa NNW 32.8 km/h 32.8 km/h 65 % 0 mm 132.0 W/m2 CLR
17:04 -9.1 °C -12.6 °C 34452.6 hPa NW 29.8 km/h 29.8 km/h 66 % 0 mm 104.0 W/m2 CLR
17:09 -9.1 °C -12.6 °C 34452.6 hPa North 32.8 km/h 32.8 km/h 66 % 0 mm 91.0 W/m2 CLR
17:14 -9.2 °C -12.6 °C 34462.7 hPa North 23.8 km/h 23.8 km/h 67 % 0 mm 83.0 W/m2 CLR
17:19 -9.3 °C -12.6 °C 34462.7 hPa NNE 23.8 km/h 23.8 km/h 68 % 0 mm 74.0 W/m2 FEW
17:24 -9.4 °C -12.6 °C 34462.7 hPa NNE 17.9 km/h 17.9 km/h 69 % 0 mm 105.0 W/m2 FEW
17:29 -9.5 °C -12.6 °C 34462.7 hPa North 17.9 km/h 17.9 km/h 69 % 0 mm 146.0 W/m2 CLR
17:34 -9.4 °C -12.3 °C 34452.6 hPa Calm     71 % 0 mm 153.0 W/m2 CLR
17:39 -9.4 °C -12.6 °C 34452.6 hPa NNW 11.9 km/h 11.9 km/h 69 % 0 mm 86.0 W/m2 CLR
17:44 -9.5 °C -12.6 °C 34452.6 hPa WNW 5.1 km/h 5.1 km/h 69 % 0 mm 86.0 W/m2 CLR
17:49 -9.5 °C -12.6 °C 34462.7 hPa WNW 10.3 km/h 10.3 km/h 70 % 0 mm 105.0 W/m2 CLR
17:54 -9.5 °C -12.7 °C 34462.7 hPa WNW 11.9 km/h 11.9 km/h 69 % 0 mm 86.0 W/m2 CLR
17:59 -9.6 °C -12.7 °C 34462.7 hPa West 11.9 km/h 11.9 km/h 69 % 0 mm 74.0 W/m2 FEW
18:04 -9.6 °C -12.7 °C 34462.7 hPa WNW 9 km/h 9 km/h 69 % 0 mm 63.0 W/m2 SCT
18:09 -9.6 °C -12.7 °C 34462.7 hPa WNW 10.3 km/h 10.3 km/h 69 % 0 mm 63.0 W/m2 SCT
18:14 -9.7 °C -12.7 °C 34462.7 hPa Calm     70 % 0 mm 49.0 W/m2 SCT
18:19 -9.7 °C -12.6 °C 34462.7 hPa Calm     71 % 0 mm 32.0 W/m2 BKN
18:24 -9.8 °C -12.7 °C 34476.3 hPa Calm     71 % 0 mm 21.0 W/m2 BKN
18:29 -9.8 °C -12.7 °C 34486.4 hPa Calm     71 % 0 mm 16.0 W/m2 BKN
18:34 -9.8 °C -12.7 °C 34486.4 hPa Calm     71 % 0 mm 12.0 W/m2 BKN
18:39 -9.8 °C -12.7 °C 34486.4 hPa Calm     71 % 0 mm 9.0 W/m2 BKN
18:44 -9.8 °C -12.6 °C 34486.4 hPa Calm     72 % 0 mm 7.0 W/m2 BKN
18:49 -9.9 °C -12.7 °C 34486.4 hPa Calm     72 % 0 mm 5.0 W/m2 OVC
18:54 -9.9 °C -12.7 °C 34496.6 hPa Calm     72 % 0 mm 0.0 W/m2 OVC
18:59 -10 °C -12.7 °C 34496.6 hPa Calm     72 % 0 mm 0.0 W/m2 OVC
19:04 -10.1 °C -12.8 °C 34496.6 hPa Calm     72 % 0 mm 0.0 W/m2 CLR
19:09 -10.2 °C -12.8 °C 34510.1 hPa Calm     73 % 0 mm 0.0 W/m2 CLR
19:14 -10.2 °C -12.9 °C 34510.1 hPa Calm     73 % 0 mm 0.0 W/m2 CLR
19:19 -10.3 °C -12.8 °C 34510.1 hPa Calm     74 % 0 mm 0.0 W/m2 CLR
19:24 -10.3 °C -12.9 °C 34510.1 hPa Calm     74 % 0 mm 0.0 W/m2 CLR
19:29 -10.4 °C -12.8 °C 34510.1 hPa Calm     75 % 0 mm 0.0 W/m2 CLR
19:34 -10.4 °C -12.8 °C 34520.3 hPa Calm     75 % 0 mm 0.0 W/m2 CLR
19:39 -10.4 °C -12.9 °C 34520.3 hPa Calm     75 % 0 mm 0.0 W/m2 CLR
19:44 -10.4 °C -12.8 °C 34520.3 hPa Calm     76 % 0 mm 0.0 W/m2 CLR
19:49 -10.6 °C -12.8 °C 34520.3 hPa Calm     77 % 0 mm 0.0 W/m2 CLR
19:54 -10.7 °C -12.8 °C 34520.3 hPa Calm     78 % 0 mm 0.0 W/m2 CLR
19:59 -10.8 °C -12.8 °C 34533.8 hPa Calm     79 % 0 mm 0.0 W/m2 CLR
20:04 -10.9 °C -12.8 °C 34533.8 hPa Calm     79 % 0 mm 0.0 W/m2 CLR
20:09 -10.9 °C -12.7 °C 34544 hPa Calm     80 % 0 mm 0.0 W/m2 CLR
20:14 -10.9 °C -12.8 °C 34544 hPa Calm     79 % 0 mm 0.0 W/m2 CLR
20:19 -10.8 °C -12.7 °C 34544 hPa Calm     79 % 0 mm 0.0 W/m2 CLR
20:24 -10.7 °C -12.8 °C 34533.8 hPa Calm     78 % 0 mm 0.0 W/m2 CLR
20:29 -10.8 °C -12.8 °C 34544 hPa Calm     78 % 0 mm 0.0 W/m2 CLR
20:34 -10.9 °C -12.9 °C 34544 hPa Calm     79 % 0 mm 0.0 W/m2 CLR
20:39 -11 °C -12.8 °C 34544 hPa Calm     80 % 0 mm 0.0 W/m2 CLR
20:44 -11.1 °C -12.9 °C 34544 hPa Calm     81 % 0 mm 0.0 W/m2 CLR
20:49 -11.2 °C -12.9 °C 34544 hPa Calm     82 % 0 mm 0.0 W/m2 CLR
20:54 -11.2 °C -12.9 °C 34544 hPa Calm     82 % 0 mm 0.0 W/m2 CLR
20:59 -11.2 °C -12.9 °C 34544 hPa Calm     82 % 0 mm 0.0 W/m2 CLR
21:04 -11.2 °C -12.9 °C 34554.1 hPa Calm     82 % 0 mm 0.0 W/m2 CLR
21:09 -11.2 °C -12.9 °C 34544 hPa Calm     82 % 0 mm 0.0 W/m2 CLR
21:14 -11.2 °C -12.8 °C 34554.1 hPa West 9 km/h 9 km/h 82 % 0 mm 0.0 W/m2 CLR
21:19 -11.1 °C -12.8 °C 34554.1 hPa Calm     81 % 0 mm 0.0 W/m2 CLR
21:24 -11.1 °C -12.8 °C 34554.1 hPa WSW 6 km/h   81 % 0 mm 0.0 W/m2 CLR
21:30 -11.1 °C -12.9 °C 34554.1 hPa Calm     81 % 0 mm 0.0 W/m2 CLR
21:35 -11.2 °C -12.9 °C 34554.1 hPa Calm     81 % 0 mm 0.0 W/m2 CLR
21:40 -11.3 °C -12.9 °C 34554.1 hPa Calm     82 % 0 mm 0.0 W/m2 CLR
21:45 -11.3 °C -12.9 °C 34554.1 hPa Calm     82 % 0 mm 0.0 W/m2 CLR
21:50 -11.2 °C -12.8 °C 34554.1 hPa Calm     82 % 0 mm 0.0 W/m2 CLR
21:55 -11.2 °C -12.9 °C 34554.1 hPa Calm     81 % 0 mm 0.0 W/m2 CLR
22:00 -11.3 °C -12.9 °C 34554.1 hPa Calm     82 % 0 mm 0.0 W/m2 CLR
22:05 -11.4 °C -12.9 °C 34554.1 hPa Calm     83 % 0 mm 0.0 W/m2 CLR
22:10 -11.4 °C -13 °C 34554.1 hPa Calm     83 % 0 mm 0.0 W/m2 CLR
22:15 -11.5 °C -12.9 °C 34567.7 hPa Calm     84 % 0 mm 0.0 W/m2 CLR
22:20 -11.6 °C -13.1 °C 34567.7 hPa Calm     84 % 0 mm 0.0 W/m2 CLR
22:25 -11.7 °C -13.2 °C 34567.7 hPa Calm     84 % 0 mm 0.0 W/m2 CLR
22:30 -11.7 °C -13.1 °C 34567.7 hPa Calm     85 % 0 mm 0.0 W/m2 CLR
22:35 -11.8 °C -13.2 °C 34567.7 hPa Calm     85 % 0 mm 0.0 W/m2 CLR
22:40 -11.9 °C -13.3 °C 34567.7 hPa Calm     85 % 0 mm 0.0 W/m2 CLR
22:45 -12.1 °C -13.3 °C 34567.7 hPa Calm     86 % 0 mm 0.0 W/m2 CLR
22:50 -12.1 °C -13.2 °C 34567.7 hPa Calm     87 % 0 mm 0.0 W/m2 CLR
22:55 -11.9 °C -13.2 °C 34567.7 hPa Calm     86 % 0 mm 0.0 W/m2 CLR
23:00 -11.9 °C -13.2 °C 34567.7 hPa Calm     86 % 0 mm 0.0 W/m2 CLR
23:05 -12.1 °C -13.3 °C 34567.7 hPa Calm     86 % 0 mm 0.0 W/m2 CLR
23:10 -12.1 °C -13.2 °C 34567.7 hPa Calm     87 % 0 mm 0.0 W/m2 CLR
23:15 -12.1 °C -13.2 °C 34567.7 hPa Calm     87 % 0 mm 0.0 W/m2 CLR
23:20 -12 °C -13.2 °C 34567.7 hPa Calm     86 % 0 mm 0.0 W/m2 CLR
23:25 -12 °C -13.2 °C 34567.7 hPa Calm     86 % 0 mm 0.0 W/m2 CLR
23:30 -12.1 °C -13.4 °C 34567.7 hPa Calm     85 % 0 mm 0.0 W/m2 CLR
23:35 -12.2 °C -13.4 °C 34567.7 hPa Calm     86 % 0 mm 0.0 W/m2 CLR
23:40 -12.2 °C -13.4 °C 34567.7 hPa Calm     87 % 0 mm 0.0 W/m2 CLR
23:45 -12.2 °C -13.4 °C 34567.7 hPa Calm     87 % 0 mm 0.0 W/m2 CLR
23:50 -12.3 °C -13.4 °C 34567.7 hPa Calm     87 % 0 mm 0.0 W/m2 CLR
23:55 -12.3 °C -13.4 °C 34554.1 hPa Calm     88 % 0 mm 0.0 W/m2 CLR
Lo Temps de Massalio
Compliments of Weather Underground - 1.25 mb